sat.trackr.live / text

‹ back to catalog

STARLINK-3399

NORAD 51121 · 2022-005T

PAYLOAD ACTIVE UNKNOWN

§ Identity

Operator
Country
US
Launch date
2022-01-19
Launch site
AFETR
Launch vehicle
Mass (kg)
RCS (m²)

Purposes: comms

External: N2YO · Heavens-Above · Gunter

§ Orbital elements

Epoch: 2026-05-25T04:16:05.949696Z

Period
95.44 min
Inclination
53.2154°
Eccentricity
0.0001506
Mean motion
15.08841752 rev/d
Perigee alt
538.7 km
Apogee alt
540.8 km
Semi-major
6,917.9 km
B*
6.5395e-5
RAAN
305.7616°
Arg perigee
89.9706°
Mean anomaly
270.1459°
Rev number
24,042

§ Raw data

STARLINK-33991 51121U 22005T   26145.17784664  .00000753  00000+0  65395-4 0  99962 51121  53.2154 305.7616 0001506  89.9706 270.1459 15.08841752240422

JSON: /api/v1/satellites/51121 · /tle

For live sub-satellite position, see the globe view (requires WebGL).

§ Visibility from observer

Set your observer location to see the next 7 days of passes ≥ 10°. The values pass through the URL so the page stays shareable.

No JS? Fill the form by hand. The geolocation button needs JavaScript.